Data for 03/05/2018

Time Sea-Level Adjusted Pressure Absolute Pressure Temperature Relative Humidity Dew Point   
(mb) (inHg) (mb) (inHg) (C) (F) (%) (C) (F)
00:05 1019 30.09 848 25.04 -8 17.6 88 -9.7 14.5
00:10 1019 30.09 848 25.04 -8 17.6 88 -9.7 14.5
00:15 1019 30.09 848 25.04 -8.1 17.5 87 -9.8 14.3
00:20 1019 30.09 848 25.04 -8.1 17.4 87 -9.9 14.2
00:25 1019 30.09 848 25.04 -8.2 17.3 87 -9.9 14.1
00:30 1019 30.09 848 25.04 -8.2 17.2 87 -10 14
00:35 1019 30.09 848 25.04 -8.3 17.1 87 -10 14
00:40 1019 30.09 849 25.07 -8.2 17.2 88 -10 14.1
00:45 1019 30.09 849 25.07 -8.2 17.3 88 -9.8 14.3
00:50 1019 30.09 849 25.07 -7.8 17.9 86 -9.7 14.5
00:55 1019 30.09 849 25.07 -7.6 18.3 86 -9.6 14.7
01:00 1019 30.09 849 25.07 -7.4 18.7 84 -9.6 14.7
01:05 1019 30.09 849 25.07 -7.3 18.9 84 -9.5 14.8
01:10 1019 30.09 849 25.07 -7.2 19 83 -9.6 14.8
01:15 1019 30.09 849 25.07 -7.2 19 83 -9.6 14.7
01:20 1019 30.09 849 25.07 -7.2 19 83 -9.6 14.7
01:25 1019 30.09 849 25.07 -7.2 19 84 -9.5 14.9
01:30 1019 30.09 849 25.07 -7.2 19.1 82 -9.7 14.6
01:35 1019 30.09 848 25.04 -7.3 18.8 82 -9.8 14.3
01:40 1019 30.09 848 25.04 -7.6 18.4 84 -9.8 14.3
01:45 1019 30.09 848 25.04 -7.5 18.4 84 -9.9 14.3
01:50 1019 30.09 848 25.04 -7.5 18.4 84 -9.8 14.4
01:55 1019 30.09 848 25.04 -7.5 18.4 84 -9.8 14.4
02:00 1019 30.09 848 25.04 -7.7 18.2 85 -9.8 14.3
02:05 1019 30.09 848 25.04 -7.9 17.8 85 -10 14.1
02:10 1019 30.09 849 25.07 -8 17.5 86 -10 14
02:15 1019 30.09 849 25.07 -8 17.5 87 -9.9 14.2
02:20 1019 30.09 849 25.07 -7.9 17.8 86 -9.9 14.1
02:25 1019 30.09 849 25.07 -7.6 18.3 84 -9.8 14.3
02:30 1019 30.09 849 25.07 -7.5 18.5 83 -9.9 14.1
02:35 1020 30.12 849 25.07 -7.8 18 85 -9.9 14.3
02:40 1020 30.12 849 25.07 -8 17.5 86 -9.9 14.1
02:45 1020 30.12 849 25.07 -7.9 17.9 85 -9.9 14.2
02:50 1020 30.12 849 25.07 -7.6 18.3 83 -10.1 13.9
02:55 1019 30.09 849 25.07 -7.3 18.9 80 -10.1 13.8
03:00 1019 30.09 849 25.07 -7.1 19.3 78 -10.3 13.5
03:05 1019 30.09 849 25.07 -6.9 19.6 75 -10.6 13
03:10 1019 30.09 849 25.07 -6.9 19.5 76 -10.5 13.1
03:15 1019 30.09 849 25.07 -6.9 19.5 73 -10.9 12.3
03:20 1019 30.09 849 25.07 -6.7 20 68 -11.6 11.1
03:25 1019 30.09 849 25.07 -6 21.1 65 -11.6 11.2
03:30 1019 30.09 849 25.07 -5.7 21.7 64 -11.5 11.2
03:35 1019 30.09 849 25.07 -5.5 22.1 61 -11.9 10.6
03:40 1019 30.09 849 25.07 -5.4 22.3 61 -11.7 11
03:45 1019 30.09 849 25.07 -5.3 22.5 59 -12 10.4
03:50 1019 30.09 849 25.07 -5.2 22.7 60 -11.9 10.6
03:55 1020 30.12 849 25.07 -5.2 22.7 59 -12 10.5
04:00 1020 30.12 849 25.07 -5.2 22.7 59 -11.9 10.5
04:05 1020 30.12 849 25.07 -5.1 22.8 60 -11.8 10.7
04:10 1020 30.12 849 25.07 -5.1 22.8 59 -12 10.4
04:15 1020 30.12 849 25.07 -5.1 22.9 59 -11.9 10.5
04:20 1020 30.12 849 25.07 -5 22.9 59 -11.9 10.5
04:25 1020 30.12 849 25.07 -5 23 60 -11.7 10.9
04:30 1020 30.12 849 25.07 -5.1 22.8 60 -11.6 11.1
04:35 1020 30.12 849 25.07 -5.2 22.7 61 -11.5 11.2
04:40 1020 30.12 849 25.07 -5.2 22.7 63 -11.2 11.8
04:45 1020 30.12 849 25.07 -5.4 22.3 65 -10.9 12.3
04:50 1020 30.12 849 25.07 -5.6 21.9 62 -11.8 10.8
04:55 1020 30.12 849 25.07 -5.5 22.1 63 -11.5 11.2
05:00 1020 30.12 849 25.07 -5.6 21.9 64 -11.4 11.4
05:05 1020 30.12 849 25.07 -5.7 21.7 64 -11.5 11.4
05:10 1020 30.12 849 25.07 -5.7 21.8 63 -11.6 11.1
05:15 1020 30.12 849 25.07 -5.5 22.1 63 -11.4 11.4
05:20 1020 30.12 849 25.07 -5.5 22.1 66 -11 12.2
05:25 1020 30.12 849 25.07 -6 21.1 69 -10.8 12.5
05:30 1020 30.12 849 25.07 -6.3 20.6 69 -11 12.1
05:35 1020 30.12 849 25.07 -6.2 20.9 68 -11 12.1
05:40 1020 30.12 849 25.07 -6.2 20.8 70 -10.8 12.5
05:45 1020 30.12 849 25.07 -6.5 20.2 70 -11.2 11.8
05:50 1020 30.12 849 25.07 -6.4 20.4 70 -11 12.2
05:55 1020 30.12 849 25.07 -6.6 20.1 70 -11.1 12
06:00 1020 30.12 849 25.07 -6.7 20 69 -11.4 11.6
06:05 1020 30.12 849 25.07 -6.5 20.3 69 -11.4 11.5
06:10 1020 30.12 850 25.1 -6.3 20.6 68 -11.4 11.5
06:15 1020 30.12 850 25.1 -6.1 21 66 -11.4 11.4
06:20 1020 30.12 850 25.1 -5.9 21.4 66 -11.4 11.6
06:25 1021 30.15 850 25.1 -5.8 21.5 66 -11.3 11.7
06:30 1021 30.15 850 25.1 -5.7 21.7 66 -11.2 11.9
06:35 1021 30.15 850 25.1 -5.6 21.8 65 -11.1 12
06:40 1021 30.15 850 25.1 -5.7 21.7 65 -11.2 11.8
06:45 1021 30.15 850 25.1 -5.7 21.7 65 -11.3 11.7
06:50 1021 30.15 850 25.1 -5.6 21.9 65 -11.2 11.9
06:55 1021 30.15 850 25.1 -5.6 21.9 64 -11.4 11.4
07:00 1021 30.15 850 25.1 -5.5 22 66 -11 12.2
07:05 1021 30.15 850 25.1 -5.5 22.1 65 -11.2 11.9
07:10 1021 30.15 850 25.1 -5.5 22.2 66 -10.9 12.4
07:15 1021 30.15 850 25.1 -5.4 22.3 65 -11 12.2
07:20 1021 30.15 850 25.1 -5.4 22.4 65 -11 12.2
07:25 1021 30.15 850 25.1 -5.3 22.4 62 -11.4 11.4
07:30 1021 30.15 850 25.1 -5.2 22.7 63 -11.1 12
07:35 1021 30.15 850 25.1 -5.1 22.9 63 -11 12.1
07:40 1021 30.15 850 25.1 -4.9 23.2 63 -10.9 12.4
07:45 1021 30.15 850 25.1 -4.8 23.3 63 -10.8 12.6
07:50 1021 30.15 850 25.1 -4.7 23.6 57 -11.9 10.6
07:55 1021 30.15 850 25.1 -4.8 23.4 57 -12 10.4
08:00 1021 30.15 850 25.1 -4.4 24 59 -11.4 11.5
08:05 1021 30.15 850 25.1 -4.3 24.3 56 -11.7 10.9
08:10 1021 30.15 850 25.1 -4.1 24.6 57 -11.5 11.3
08:15 1021 30.15 850 25.1 -3.8 25.2 56 -11.3 11.7
08:20 1021 30.15 850 25.1 -3.8 25.1 59 -10.6 12.9
08:25 1021 30.15 850 25.1 -4.9 23.2 63 -11 12.2
08:30 1021 30.15 850 25.1 -5.1 22.9 62 -11.3 11.7
08:35 1021 30.15 850 25.1 -5 23 63 -11 12.2
08:40 1021 30.15 850 25.1 -4.4 24.1 57 -11.6 11.1
08:45 1021 30.15 850 25.1 -4.1 24.6 56 -11.6 11.2
08:50 1021 30.15 850 25.1 -3.5 25.7 55 -11.4 11.5
08:55 1021 30.15 850 25.1 -3.4 25.9 55 -11.2 11.8
09:00 1021 30.15 850 25.1 -2.9 26.7 50 -11.9 10.6
09:05 1021 30.15 850 25.1 -2.5 27.6 52 -11 12.2
09:10 1021 30.15 850 25.1 -2.2 28 52 -10.8 12.5
09:15 1021 30.15 850 25.1 -1.9 28.6 50 -10.9 12.3
09:20 1021 30.15 850 25.1 -1.4 29.6 46 -11.5 11.4
09:25 1021 30.15 850 25.1 -0.9 30.3 46 -11.3 11.7
09:30 1021 30.15 850 25.1 -0.8 30.6 45 -11.2 11.9
09:35 1021 30.15 850 25.1 -0.9 30.4 46 -11.1 12.1
09:40 1021 30.15 850 25.1 -1.3 29.7 48 -11 12.3
09:45 1021 30.15 850 25.1 -1.2 29.9 49 -10.7 12.7
09:50 1021 30.15 850 25.1 -1.2 29.8 45 -11.7 11
09:55 1021 30.15 850 25.1 -1.6 29.2 44 -12.4 9.8
10:00 1021 30.15 850 25.1 -1.4 29.4 44 -12.2 10.1
10:05 1021 30.15 850 25.1 -1.5 29.4 47 -11.3 11.7
10:10 1021 30.15 850 25.1 -1.3 29.6 46 -11.4 11.5
10:15 1021 30.15 850 25.1 -1.1 30 48 -10.9 12.4
10:20 1021 30.15 850 25.1 -1 30.3 46 -11.2 11.8
10:25 1021 30.15 850 25.1 -0.5 31.1 44 -11.4 11.5
10:30 1021 30.15 850 25.1 -0.3 31.5 45 -10.9 12.3
10:35 1021 30.15 850 25.1 0.3 32.5 44 -10.6 12.8
10:40 1021 30.15 850 25.1 1.1 34 41 -10.7 12.8
10:45 1021 30.15 850 25.1 1.6 35 39 -11 12.2
10:50 1021 30.15 850 25.1 1.1 34 42 -10.6 13
10:55 1021 30.15 850 25.1 1.8 35.3 41 -10.2 13.6
11:00 1021 30.15 850 25.1 2 35.5 40 -10.2 13.6
11:05 1021 30.15 850 25.1 2.6 36.7 34 -11.8 10.7
11:10 1021 30.15 850 25.1 2.4 36.3 36 -11.1 12
11:15 1021 30.15 850 25.1 1.5 34.7 39 -11 12.2
11:20 1021 30.15 850 25.1 1.7 35.1 36 -11.7 10.9
11:25 1021 30.15 850 25.1 1.5 34.7 43 -9.9 14.1
11:30 1021 30.15 850 25.1 1.4 34.5 42 -10.3 13.5
11:35 1021 30.15 850 25.1 1.2 34.2 41 -10.7 12.8
11:40 1021 30.15 850 25.1 1 33.7 42 -10.7 12.8
11:45 1021 30.15 850 25.1 1 33.7 42 -10.5 13
11:50 1021 30.15 850 25.1 1.4 34.5 41 -10.5 13.1
11:55 1021 30.15 850 25.1 1.4 34.5 43 -10 14
12:00 1021 30.15 850 25.1 1.3 34.4 41 -10.6 12.9
12:05 1021 30.15 850 25.1 1.3 34.3 42 -10.1 13.8
12:10 1021 30.15 850 25.1 1.5 34.7 39 -11 12.3
12:15 1020 30.12 850 25.1 1.3 34.3 39 -11.3 11.6
12:20 1020 30.12 850 25.1 1.2 34.1 39 -11.5 11.3
12:25 1020 30.12 849 25.07 1.4 34.5 38 -11.6 11.2
12:30 1020 30.12 849 25.07 1.2 34.1 42 -10.5 13.2
12:35 1020 30.12 849 25.07 1.1 34 39 -11.5 11.3
12:40 1020 30.12 849 25.07 0.7 33.2 39 -11.6 11.1
12:45 1020 30.12 849 25.07 1 33.8 42 -10.6 12.9
12:50 1020 30.12 849 25.07 1.5 34.7 38 -11.2 11.8
12:55 1020 30.12 849 25.07 1 33.8 40 -11.1 12
13:00 1020 30.12 849 25.07 1.3 34.3 40 -11 12.2
13:05 1020 30.12 849 25.07 0.9 33.6 39 -11.7 11
13:10 1020 30.12 849 25.07 0.6 33 39 -11.9 10.6
13:15 1020 30.12 849 25.07 0.6 33.1 39 -11.7 11
13:20 1020 30.12 849 25.07 1.1 34.1 37 -11.9 10.5
13:25 1020 30.12 849 25.07 1.1 34 36 -12.4 9.8
13:30 1020 30.12 849 25.07 1.4 34.6 38 -11.5 11.3
13:35 1020 30.12 849 25.07 1.5 34.6 38 -11.4 11.5
13:40 1020 30.12 849 25.07 1.8 35.3 35 -11.9 10.5
13:45 1020 30.12 849 25.07 2.3 36.1 35 -11.6 11.1
13:50 1020 30.12 849 25.07 2.1 35.9 34 -12.3 9.9
13:55 1020 30.12 849 25.07 1.8 35.3 35 -12.3 9.9
14:00 1020 30.12 849 25.07 1.4 34.5 35 -12.5 9.5
14:05 1020 30.12 849 25.07 0.9 33.6 37 -12.1 10.3
14:10 1020 30.12 849 25.07 0.7 33.2 38 -12 10.3
14:15 1020 30.12 849 25.07 0.9 33.7 40 -11.3 11.6
14:20 1020 30.12 849 25.07 1.8 35.2 34 -12.4 9.7
14:25 1020 30.12 849 25.07 1.5 34.8 37 -11.8 10.8
14:30 1020 30.12 849 25.07 1.6 35 36 -12 10.5
14:35 1020 30.12 849 25.07 1.3 34.4 38 -11.6 11.1
14:40 1020 30.12 849 25.07 1.2 34.2 38 -11.7 10.9
14:45 1020 30.12 849 25.07 1.5 34.6 37 -11.6 11.2
14:50 1020 30.12 849 25.07 1.7 35 38 -11.1 12
14:55 1020 30.12 849 25.07 1.6 34.9 36 -12 10.3
15:00 1020 30.12 849 25.07 1.6 34.9 37 -11.6 11.2
15:05 1020 30.12 849 25.07 0.7 33.2 41 -11 12.2
15:10 1020 30.12 849 25.07 0.9 33.7 40 -11.3 11.6
15:15 1020 30.12 849 25.07 1.4 34.4 40 -10.8 12.6
15:20 1020 30.12 849 25.07 0.7 33.2 43 -10.5 13.1
15:25 1020 30.12 849 25.07 -0 32 43 -11.1 12
15:30 1020 30.12 849 25.07 -0.1 31.8 47 -10.1 13.8
15:35 1020 30.12 849 25.07 -0.3 31.4 47 -10.2 13.6
15:40 1020 30.12 849 25.07 -0.3 31.5 49 -9.8 14.4
15:45 1020 30.12 849 25.07 -0.4 31.3 53 -8.9 16.1
15:50 1020 30.12 850 25.1 -0.6 30.9 55 -8.6 16.5
15:55 1020 30.12 850 25.1 -0.7 30.7 55 -8.6 16.4
16:00 1020 30.12 850 25.1 -0.6 30.9 57 -8.1 17.4
16:05 1020 30.12 850 25.1 -0.8 30.5 60 -7.7 18.1
16:10 1020 30.12 850 25.1 -1 30.2 64 -6.9 19.5
16:15 1020 30.12 850 25.1 -1.6 29.1 72 -6 21.1
16:20 1020 30.12 850 25.1 -2.3 27.8 76 -5.9 21.3
16:25 1021 30.15 850 25.1 -2.7 27.1 77 -6.3 20.7
16:30 1021 30.15 850 25.1 -2.6 27.3 76 -6.3 20.6
16:35 1021 30.15 850 25.1 -2.3 27.9 73 -6.5 20.4
16:40 1021 30.15 850 25.1 -2.3 27.9 73 -6.6 20.2
16:45 1021 30.15 850 25.1 -2.3 27.8 73 -6.6 20.1
16:50 1021 30.15 850 25.1 -2.6 27.4 76 -6.3 20.7
16:55 1021 30.15 850 25.1 -2.6 27.3 78 -5.9 21.3
17:00 1021 30.15 850 25.1 -2.7 27.2 78 -5.9 21.3
17:05 1021 30.15 850 25.1 -2.7 27.2 78 -6 21.2
17:10 1021 30.15 850 25.1 -2.6 27.3 78 -6 21.3
17:15 1021 30.15 850 25.1 -2.6 27.3 77 -6.1 21.1
17:20 1021 30.15 850 25.1 -2.7 27.1 78 -6 21.2
17:25 1021 30.15 850 25.1 -2.7 27.1 78 -6.1 21
17:30 1021 30.15 850 25.1 -2.7 27.1 77 -6.1 21
17:35 1021 30.15 850 25.1 -2.7 27.1 77 -6.2 20.9
17:40 1021 30.15 850 25.1 -2.9 26.8 80 -5.9 21.3
17:45 1021 30.15 850 25.1 -3.3 26.1 82 -5.9 21.3
17:50 1021 30.15 850 25.1 -3.5 25.8 84 -5.8 21.5
17:55 1021 30.15 850 25.1 -3.5 25.6 84 -5.9 21.3
18:00 1021 30.15 850 25.1 -3.5 25.6 83 -6 21.2
18:05 1021 30.15 850 25.1 -3.4 25.8 81 -6.3 20.7
18:10 1021 30.15 850 25.1 -3.3 26 79 -6.5 20.3
18:15 1021 30.15 850 25.1 -3.4 25.8 79 -6.6 20.1
18:20 1021 30.15 850 25.1 -3.4 25.9 79 -6.5 20.2
18:25 1021 30.15 850 25.1 -3.1 26.4 76 -6.8 19.8
18:30 1021 30.15 850 25.1 -3.1 26.4 79 -6.2 20.8
18:35 1021 30.15 851 25.13 -3.3 26.1 81 -6.2 20.9
18:40 1021 30.15 851 25.13 -3 26.6 78 -6.3 20.7
18:45 1021 30.15 851 25.13 -2.9 26.8 77 -6.3 20.6
18:50 1021 30.15 851 25.13 -2.8 26.9 75 -6.6 20.1
18:55 1021 30.15 851 25.13 -2.9 26.8 75 -6.7 20
19:00 1021 30.15 850 25.1 -3 26.7 76 -6.7 20
19:05 1021 30.15 850 25.1 -3 26.6 76 -6.7 19.9
19:10 1021 30.15 850 25.1 -3 26.6 76 -6.6 20.1
19:15 1021 30.15 851 25.13 -3 26.6 77 -6.5 20.2
19:20 1021 30.15 851 25.13 -3 26.7 76 -6.6 20.2
19:25 1022 30.18 851 25.13 -3 26.6 77 -6.6 20.2
19:30 1022 30.18 851 25.13 -3.2 26.2 77 -6.6 20.1
19:35 1021 30.15 851 25.13 -3.4 25.9 78 -6.7 19.9
19:40 1021 30.15 851 25.13 -3.4 25.8 78 -6.8 19.7
19:45 1021 30.15 851 25.13 -3.4 26 77 -6.8 19.8
19:50 1021 30.15 851 25.13 -3.4 25.9 77 -6.9 19.6
19:55 1021 30.15 851 25.13 -3.5 25.7 77 -6.9 19.5
20:00 1022 30.18 851 25.13 -3.7 25.4 78 -7 19.3
20:05 1022 30.18 851 25.13 -3.9 25 78 -7.2 19.1
20:10 1022 30.18 851 25.13 -3.7 25.3 75 -7.5 18.5
20:15 1022 30.18 851 25.13 -3.4 25.9 73 -7.5 18.4
20:20 1022 30.18 851 25.13 -3.2 26.2 68 -8.4 17
20:25 1022 30.18 851 25.13 -3.2 26.3 66 -8.6 16.6
20:30 1022 30.18 851 25.13 -3.2 26.2 67 -8.6 16.6
20:35 1022 30.18 851 25.13 -3.3 26.1 70 -8 17.5
20:40 1022 30.18 851 25.13 -3.4 25.9 70 -8.1 17.4
20:45 1022 30.18 851 25.13 -3.4 25.8 70 -8.1 17.3
20:50 1022 30.18 851 25.13 -3.5 25.8 68 -8.6 16.6
20:55 1022 30.18 851 25.13 -3.3 26.1 64 -9.2 15.4
21:00 1022 30.18 851 25.13 -3.2 26.3 63 -9.2 15.4
21:05 1022 30.18 851 25.13 -3.2 26.3 66 -8.7 16.3
21:10 1022 30.18 851 25.13 -3.3 26 69 -8.2 17.3
21:15 1022 30.18 851 25.13 -3.6 25.6 66 -9 15.8
21:20 1022 30.18 851 25.13 -3.6 25.5 72 -8 17.6
21:25 1022 30.18 851 25.13 -3.9 24.9 70 -8.6 16.6
21:30 1022 30.18 851 25.13 -3.9 25 70 -8.6 16.5
21:35 1022 30.18 851 25.13 -3.7 25.4 67 -9 15.8
21:40 1022 30.18 851 25.13 -3.5 25.6 64 -9.3 15.2
21:45 1022 30.18 851 25.13 -3.4 25.8 62 -9.8 14.4
21:50 1022 30.18 851 25.13 -3.2 26.2 59 -10.2 13.7
21:55 1022 30.18 851 25.13 -3.1 26.4 58 -10.3 13.5
22:00 1022 30.18 851 25.13 -3.1 26.4 59 -10 14
22:05 1022 30.18 851 25.13 -3.1 26.5 61 -9.6 14.7
22:10 1022 30.18 851 25.13 -3.4 25.8 67 -8.8 16.2
22:15 1022 30.18 851 25.13 -3.7 25.4 67 -8.9 16.1
22:20 1022 30.18 851 25.13 -3.5 25.7 66 -8.9 15.9
22:25 1022 30.18 852 25.16 -3.4 25.9 67 -8.7 16.3
22:30 1022 30.18 852 25.16 -3.4 26 65 -9 15.9
22:35 1022 30.18 852 25.16 -3.3 26 65 -9 15.8
22:40 1022 30.18 852 25.16 -3.4 25.9 65 -9 15.8
22:45 1022 30.18 852 25.16 -3.4 25.9 64 -9.2 15.4
22:50 1022 30.18 852 25.16 -3.4 25.9 64 -9.2 15.5
22:55 1022 30.18 852 25.16 -3.3 26 64 -9.3 15.3
23:00 1022 30.18 852 25.16 -3.4 26 63 -9.3 15.2
23:05 1022 30.18 852 25.16 -3.4 25.9 63 -9.4 15.1
23:10 1022 30.18 852 25.16 -3.4 25.9 63 -9.4 15.1
23:15 1023 30.21 852 25.16 -3.5 25.7 64 -9.3 15.2
23:20 1023 30.21 852 25.16 -3.8 25.1 65 -9.4 15.1
23:25 1023 30.21 852 25.16 -3.9 25 65 -9.6 14.8
23:30 1023 30.21 852 25.16 -3.8 25.2 64 -9.6 14.8
23:35 1023 30.21 852 25.16 -3.8 25.3 64 -9.6 14.8
23:40 1023 30.21 852 25.16 -3.7 25.3 64 -9.6 14.8
23:45 1023 30.21 852 25.16 -3.7 25.3 64 -9.5 14.9
23:50 1023 30.21 852 25.16 -3.8 25.2 65 -9.4 15.1
23:55 1023 30.21 852 25.16 -3.8 25.1 66 -9.3 15.2
24:00 1023 30.21 852 25.16 -3.8 25.1 65 -9.4 15